Regional Weather Roundup
Issued by NWS Mt. Holly, NJ

Home | Current Version | Previous Version | Text Only | Print | Product List | Glossary On
Versions: 1 2 3 4 5 6 7 8 9 10 11 12 13 14 15 16 17 18 19 20 21 22 23 24 25 26 27 28 29 30 31 32 33 34 35 36 37 38 39 40 41 42 43 44 45 46 47 48 49 50
000
ASUS41 KPHI 280010
RWRPHI

REGIONAL WEATHER ROUNDUP
NATIONAL WEATHER SERVICE MOUNT HOLLY NJ
700 PM EST THU NOV 27 2014

NOTE:  "FAIR" INDICATES FEW OR NO CLOUDS BELOW 12,000 FEET WITH NO
SIGNIFICANT WEATHER AND/OR OBSTRUCTIONS TO VISIBILITY.

 * = STATION DOES NOT REPORT PRECIPITATION (E.G. RAIN, SNOW, ETC.)
        OR FOG.

NJZ015>026-280100-
SOUTHERN NEW JERSEY

CITY           SKY/WX    TMP DP  RH WIND       PRES   REMARKS
POMONA         CLEAR     33  28  81 W7        30.07R WCI  27
6HR MIN TEMP:  33; 6HR MAX TEMP:  44;

RIO GRANDE*    CLEAR     37  27  65 NW7       30.07R WCI  32
MILLVILLE      CLEAR     33  27  78 W7        30.08R WCI  27
WRIGHTSTOWN    PTCLDY    33  28  79 W5        30.04R WCI  29
MOUNT HOLLY    CLEAR     35  27  72 W5        30.07R WCI  31
TRENTON        MOCLDY    35  27  72 NW6       30.06R WCI  30
6HR MIN TEMP:  35; 6HR MAX TEMP:  36;


$$
NJZ001>014-280100-
NORTHERN NEW JERSEY

CITY           SKY/WX    TMP DP  RH WIND       PRES   REMARKS
SUSSEX         CLOUDY    33  25  72 W5        30.03R WCI  29
ANDOVER*         N/A     31  23  72 N3        30.03R
NEWARK         CLOUDY    36  29  75 W5        30.05R WCI  32
TETERBORO      CLOUDY    36  27  69 NW6       30.03R WCI  31
CALDWELL       CLOUDY    34  27  75 W3        30.04R
SOMERVILLE     CLEAR     35  23  61 NW7       30.04R WCI  29
ALLAIRE*       MOCLDY    34  25  69 W5        30.04S WCI  30
TOMS RIVER*    MOCLDY    28  28 100 CALM      30.06R

$$
PAZ043-044-047-054-055-060>062-066>071-280100-
EASTERN PENNSYLVANIA

CITY           SKY/WX    TMP DP  RH WIND       PRES   REMARKS
PHILADELPHIA   PTCLDY    37  27  67 W9        30.09R WCI  30
6HR MIN TEMP:  37; 6HR MAX TEMP:  42;

NORTH PHILA    CLEAR     35  26  69 NW6       30.09R WCI  30
BLUE BELL      CLEAR     34  30  86 W3        30.06R
DOYLESTOWN     CLEAR     31  28  89 NW6       30.05R WCI  25
QUAKERTOWN*    CLEAR     32  27  80 W3        30.07R
POTTSTOWN      CLEAR     31  25  78 W3        30.09R
LANCASTER      PTCLDY    32  27  81 W5        30.09R WCI  27
COATESVILLE    MOCLDY    32  28  86 NW8       30.08R WCI  25
READING        CLEAR     32  25  75 W5        30.08R WCI  27
6HR MIN TEMP:  32; 6HR MAX TEMP:  38;

ALLENTOWN      CLEAR     31  24  75 W6        30.06R WCI  25
6HR MIN TEMP:  30; 6HR MAX TEMP:  37;

MOUNT POCONO   CLEAR     24  19  81 NW8       29.96R WCI  15
6HR MIN TEMP:  24; 6HR MAX TEMP:  30; 6HR PCP: TRACE;

HAZLETON       CLEAR     28  25  86 NW8       30.03S WCI  20
WILKES BARRE   CLEAR     28  20  71 W10       30.04R WCI  19

$$
DEZALL-MDZ008-012-015-019-020-280100-
DELAWARE AND EASTERN MARYLAND

CITY           SKY/WX    TMP DP  RH WIND       PRES   REMARKS
WILMINGTON     CLEAR     34  28  79 W10       30.10R WCI  26
6HR MIN TEMP:  33; 6HR MAX TEMP:  42;

DOVER          CLEAR     34  29  80 NW9       30.08R WCI  27
GEORGETOWN     CLEAR     37  28  70 NW3       30.10R
6HR MIN TEMP:  37; 6HR MAX TEMP:  45;

EASTON         MOCLDY    37  32  81 CALM      30.14R
PATUXENT       MOCLDY    41  29  62 N13       30.12R
OCEAN CITY     CLEAR     34  31  88 NW5       30.09R WCI  30
WALLOPS ISLAND CLEAR     36  33  89 NW5       30.10R WCI  32
CAMBRIDGE      PTCLDY    36  34  93 CALM      30.10R
SALISBURY      CLEAR     37  31  78 CALM      30.10R

$$
PAZ001-021-NYZ056-072-MDZ011-DCZ001-280100-
OTHER NEARBY LOCATIONS

CITY           SKY/WX    TMP DP  RH WIND       PRES   REMARKS
HARRISBURG     MOCLDY    34  31  88 W5        30.09R WCI  30
STATE COLLEGE  CLOUDY    32  27  80 W9        30.07R WCI  24
WILLIAMSPORT   CLOUDY    32  27  81 NW5       30.07R WCI  27
BINGHAMTON     CLOUDY    24  22  91 W6        30.00R WCI  17
NEW YORK CITY  CLOUDY    37  26  64 VRB6      30.05S WCI  32
BALTIMORE      PTCLDY    36  28  73 NW5       30.11R WCI  32
WASHINGTON DC  PTCLDY    41  28  60 W7        30.15R

$$


USA.gov is the U.S. government's official web portal to all federal, state and local government web resources and services.